Home   Weather   San Buenaventura   Past weeks

Flag for USA Past Weather in San Buenaventura, California, USA — Yesterday and Last 2 Weeks

Now
62 °F

Low clouds.


Feels Like: 62 °F
Forecast: 56 / 67 °F
Wind: 6 mph from East

Location: Oxnard Airport

Current Time: Dec 10, 2016 at 1:05:03 am

Latest Report: Dec 9, 2016 at 11:51 pm


Visibility: 5 mi

Pressure: 30.16 "Hg

Humidity: 83%

Dew Point: 57 °F

Location of San BuenaventuraLocation

Past Weather in San Buenaventura — Graph

°F

San Buenaventura Temperature Yesterday

Maximum temperature yesterday: 64 °F (at 10:51 am)
Minimum temperature yesterday: 55 °F (at 4:51 am)
Average temperature yesterday: 60 °F

High & Low Weather Summary for the Past Weeks

 TemperatureHumidityPressure
High74 °F (Nov 25, 10:51 am)90% (Nov 26, 12:51 pm)30.27 "Hg (Nov 26, 12:51 pm)
Low45 °F (Nov 27, 3:51 am)12% (Dec 3, 11:51 am)29.81 "Hg (Nov 28, 3:51 pm)
Average56 °F60%30.04 "Hg
* Reported Nov 24 11:51 pm — Dec 9 11:51 pm, San Buenaventura, Weather by CustomWeather, © 2016

Note: Actual official high and low records may vary slightly from our data, if they occured in-between our weather recording intervals... More about our weather records

Advertising

San Buenaventura Weather History for the Previous 24 Hours

Scroll right to see more
 ConditionsComfort  
Time TempWeatherWind HumidityBarometerVisibility
11:51 pm
Fri, Dec 9
62 °FLow clouds.6 mph83%30.16 "Hg5 mi
10:51 pm62 °FLow clouds.6 mph83%30.18 "Hg6 mi
9:51 pm62 °FFog.5 mph86%30.17 "Hg5 mi
8:51 pm62 °FFog.6 mph86%30.16 "Hg5 mi
7:51 pm62 °FLow clouds.No wind90%30.15 "Hg7 mi
6:51 pm63 °FLow clouds.No wind84%30.14 "Hg8 mi
5:51 pm63 °FLow clouds.3 mph87%30.15 "Hg8 mi
4:51 pm62 °FFog.3 mph90%30.14 "Hg6 mi
3:51 pm62 °FFog.6 mph90%30.15 "Hg2 mi
3:02 pm62 °FFog.10 mph90%30.16 "Hg1 mi
2:51 pm62 °FFog.7 mph90%30.16 "Hg2 mi
1:51 pm62 °FFog.13 mph90%30.17 "Hg1 mi
12:51 pm63 °FLow clouds.10 mph81%30.20 "Hg7 mi
11:51 am63 °FLow clouds.10 mph81%30.23 "Hg10 mi
10:51 am64 °FOvercast.9 mph73%30.26 "Hg10 mi
9:51 am61 °FOvercast.No wind58%30.27 "Hg8 mi
8:51 am60 °FOvercast.5 mph62%30.27 "Hg8 mi
7:51 am57 °FOvercast.3 mph64%30.26 "Hg8 mi
6:51 am56 °FOvercast.3 mph70%30.25 "Hg9 mi
6:03 am56 °FOvercast.6 mph72%30.24 "Hg9 mi
4:51 am55 °FOvercast.6 mph77%30.24 "Hg9 mi
3:51 am56 °FLow clouds.3 mph81%30.25 "Hg7 mi
2:51 am56 °FLow clouds.5 mph81%30.26 "Hg5 mi
1:58 am57 °FOvercast.3 mph81%30.26 "Hg4 mi
1:03 am56 °FFog.5 mph90%30.26 "Hg2 mi
Weather by CustomWeather, © 2016

See weather overviewHow to use our weather pages